Location: Christchurch
(43.5000°S, 172.6000°E)
Time: 01:08:07
(UTC+13:00)

ISS - Visible Passes

Search period start: 30 November 2022 00:00
Search period end: 10 December 2022 00:00
Orbit: 411 x 420 km, 51.6° (Epoch: 29 November)

Date Brightness Start Highest point End Pass type
(mag) Time Alt. Az. Time Alt. Az. Time Alt. Az.
30 Nov -3.3 03:25:23 47° NNE 03:25:28 47° NE 03:28:48 10° ESE visible
30 Nov -2.3 04:59:09 10° W 05:02:18 33° SSW 05:05:30 10° SE visible
01 Dec -1.7 02:38:18 20° E 02:38:18 20° E 02:39:52 10° ESE visible
01 Dec -2.9 04:11:10 17° W 04:13:29 46° SSW 04:16:50 10° SE visible
02 Dec -3.6 03:24:01 51° W 03:24:41 70° SSW 03:28:08 10° SE visible
02 Dec -1.6 04:59:02 10° WSW 05:01:52 23° S 05:04:43 10° SE visible
03 Dec -2.9 02:36:47 46° ESE 02:36:47 46° ESE 02:39:21 10° ESE visible
03 Dec -1.9 04:09:55 10° WSW 04:12:55 28° SSW 04:15:57 10° SE visible
04 Dec -1.3 01:49:29 17° ESE 01:49:29 17° ESE 01:50:27 10° ESE visible
04 Dec -2.3 03:22:20 22° WSW 03:23:59 35° SSW 03:27:11 10° SE visible
04 Dec -1.2 04:58:44 10° SW 05:01:24 20° S 05:04:04 10° SE visible
05 Dec -3.0 02:34:57 49° SSW 02:35:03 49° SSW 02:38:25 10° SE visible
05 Dec -1.3 04:09:37 10° WSW 04:12:20 21° S 04:15:04 10° SE visible
06 Dec -2.3 01:47:27 35° SE 01:47:27 35° SE 01:49:35 10° SE visible
06 Dec -1.5 03:20:26 10° WSW 03:23:17 24° SSW 03:26:09 10° SE visible
06 Dec -1.2 04:58:02 10° SW 05:00:48 22° S 05:03:35 10° ESE visible
07 Dec -1.3 00:59:51 16° ESE 00:59:51 16° ESE 01:00:41 10° ESE visible
07 Dec -1.8 02:32:41 20° WSW 02:34:13 29° SSW 02:37:17 10° SE visible
07 Dec -1.1 04:09:02 10° SW 04:11:42 21° S 04:14:23 10° SE visible
08 Dec -2.4 01:44:55 37° SW 01:45:11 37° SSW 01:48:25 10° SE visible
08 Dec -1.1 03:19:55 10° SW 03:22:34 20° S 03:25:14 10° SE visible
08 Dec -1.6 04:56:57 10° SW 05:00:02 30° SSE 05:03:06 10° E visible
09 Dec -2.6 00:56:53 43° SSE 00:56:53 43° SSE 00:59:32 10° SE visible
09 Dec -1.2 02:30:40 10° WSW 02:33:24 22° S 02:36:09 10° SE visible
09 Dec -1.2 04:08:02 10° SW 04:10:55 24° SSE 04:13:48 10° ESE visible
